TimeCDT,TemperatureF,Dew PointF,Humidity,Sea Level PressureIn,VisibilityMPH,Wind Direction,Wind SpeedMPH,Gust SpeedMPH,PrecipitationIn,Events,Conditions,WindDirDegrees,DateUTC
12:52 AM,77.0,69.1,76,29.90,10.0,East,10.4,-,N/A,,Mostly Cloudy,80,2013-09-14 05:52:00
1:52 AM,75.9,68.0,76,29.90,10.0,East,10.4,-,N/A,,Scattered Clouds,80,2013-09-14 06:52:00
2:52 AM,75.9,68.0,76,29.90,10.0,East,9.2,-,N/A,,Overcast,90,2013-09-14 07:52:00
3:52 AM,75.9,69.1,79,29.89,10.0,East,9.2,-,N/A,,Scattered Clouds,80,2013-09-14 08:52:00
4:52 AM,75.0,68.0,79,29.89,9.0,East,9.2,-,N/A,,Overcast,90,2013-09-14 09:52:00
5:52 AM,73.9,68.0,82,29.89,9.0,East,9.2,-,N/A,,Overcast,90,2013-09-14 10:52:00
6:52 AM,73.9,66.9,79,29.91,10.0,East,10.4,-,N/A,,Overcast,90,2013-09-14 11:52:00
7:52 AM,73.9,66.9,79,29.92,8.0,East,9.2,-,N/A,,Mostly Cloudy,90,2013-09-14 12:52:00
8:52 AM,75.0,66.0,73,29.94,10.0,East,13.8,-,N/A,,Mostly Cloudy,100,2013-09-14 13:52:00
9:52 AM,78.1,64.0,62,29.95,10.0,ESE,12.7,-,N/A,,Mostly Cloudy,120,2013-09-14 14:52:00
10:52 AM,82.0,63.0,52,29.95,10.0,SE,12.7,-,N/A,,Partly Cloudy,130,2013-09-14 15:52:00
11:52 AM,84.0,63.0,49,29.94,10.0,SSE,11.5,-,N/A,,Partly Cloudy,150,2013-09-14 16:52:00
12:52 PM,87.1,63.0,44,29.93,10.0,SSE,10.4,-,N/A,,Partly Cloudy,160,2013-09-14 17:52:00
1:52 PM,87.1,63.0,44,29.91,10.0,SE,6.9,-,N/A,,Scattered Clouds,130,2013-09-14 18:52:00
2:52 PM,89.1,62.1,40,29.88,10.0,ESE,10.4,-,N/A,,Mostly Cloudy,110,2013-09-14 19:52:00
3:52 PM,91.0,62.1,38,29.86,10.0,East,12.7,16.1,N/A,,Scattered Clouds,100,2013-09-14 20:52:00
4:52 PM,91.0,61.0,36,29.84,10.0,ESE,11.5,-,N/A,,Partly Cloudy,120,2013-09-14 21:52:00
5:52 PM,91.9,60.1,34,29.83,10.0,ESE,11.5,-,N/A,,Clear,110,2013-09-14 22:52:00
6:52 PM,90.0,60.1,37,29.84,10.0,East,15.0,-,N/A,,Clear,90,2013-09-14 23:52:00
7:52 PM,87.1,61.0,41,29.85,10.0,East,11.5,-,N/A,,Mostly Cloudy,100,2013-09-15 00:52:00
8:52 PM,82.9,61.0,47,29.87,10.0,ESE,6.9,-,N/A,,Clear,110,2013-09-15 01:52:00
9:52 PM,81.0,61.0,50,29.88,10.0,ESE,9.2,-,N/A,,Clear,120,2013-09-15 02:52:00
10:52 PM,81.0,60.1,49,29.90,10.0,ESE,11.5,-,N/A,,Clear,120,2013-09-15 03:52:00
11:52 PM,80.1,60.1,50,29.91,10.0,SE,12.7,-,N/A,,Clear,130,2013-09-15 04:52:00